Location: Morrison Observatory
(41.7012°N, 86.2315°W)
Time: 23:22:44
(UTC-05:00)

Daily predictions for brighter satellites

Satellite Brightness Start Highest point End
(mag) Time Altitude Azimuth Time Altitude Azimuth Time Altitude Azimuth
Cosmos 2297 Rocket 2.7 17:37:52 10° N 17:43:05 36° ENE 17:48:15 10° SE
Cosmos 389 Rocket 2.4 17:43:13 10° N 17:46:41 62° E 17:50:05 10° SSE
Cosmos 1484 Rocket 3.1 17:44:05 10° SSE 17:47:56 46° ENE 17:51:48 10° N
COSMO-SKYMED 1 4.2 17:46:20 10° NE 17:49:03 16° E 17:51:46 10° SE
Cosmos 1666 2.9 17:45:36 10° N 17:49:13 45° E 17:52:49 10° SSE
SJ 16-02 2.3 17:49:26 10° SSE 17:53:15 29° E 17:57:04 10° NE
Cosmos 2279 Rocket 4.0 17:48:17 10° S 17:54:32 81° E 18:00:49 10° N
IDEFIX/ARIANE 42P 4.1 17:50:30 10° SSW 17:55:20 40° W 18:00:13 10° NNW
Cosmos 1975 Rocket 3.5 17:51:14 10° SSW 17:55:42 70° W 18:00:11 10° N
Cosmos 1975 3.4 17:58:22 10° NNW 18:02:22 63° W 18:06:23 10° S
SMAP 3.0 17:58:32 10° SSE 18:03:08 66° ENE 18:07:45 10° N
NOSS 3-2 (A) 4.2 17:58:58 10° NNW 18:06:13 51° NE 18:14:06 10° ESE
Meteor 2-4 Rocket 3.8 18:02:17 10° SSE 18:07:30 49° E 18:12:39 10° NNE
CSL-04 Debris 4.1 18:03:52 10° SSE 18:09:14 82° ENE 18:14:40 10° NNW
NOSS 3-2 (C) 4.3 18:06:41 10° NNW 18:13:47 45° NE 18:21:30 10° ESE
BREEZE-M DEB (TANK) 2.7 18:12:07 10° WNW 18:14:45 78° SSW 18:22:25 10° SE
DELTA 2 R/B (1) 3.7 18:09:15 10° W 18:14:47 73° S 18:20:00 12° E
NOSS 5 (C) 4.5 18:12:49 10° SSW 18:16:46 66° SE 18:19:16 16° NE
ALOS 3.1 18:13:32 10° SE 18:17:25 27° ENE 18:21:20 10° N
Meteor 1-13 Rocket 4.2 18:11:58 10° S 18:17:33 81° E 18:23:17 10° NNE
Cosmos 1025 Rocket 4.2 18:14:34 10° SE 18:17:51 22° E 18:19:59 15° NE
Cosmos 2369 3.7 18:12:50 10° S 18:18:25 64° ESE 18:24:05 10° NNE
Cosmos 2278 3.8 18:13:27 10° S 18:19:01 61° ESE 18:24:40 10° NNE
ATLAS 2AS CENTAUR R/B 3.5 18:12:32 10° SW 18:20:16 64° NW 18:28:23 10° NNE
ATLAS 3B R/B 2.6 18:13:51 10° NW 18:20:35 89° ENE 18:27:07 10° SSE
FENGYUN 3A 4.2 18:18:41 10° SE 18:23:26 33° ENE 18:28:12 10° N
Cosmos 1536 Rocket 3.4 18:19:34 10° S 18:23:55 72° E 18:28:14 10° NNE
METEOR-M 4.2 18:19:28 10° SSE 18:24:39 55° ENE 18:29:52 10° N
Meteor 1-28 Rocket 3.2 18:21:24 10° N 18:25:12 88° W 18:28:58 10° SSW
Hubble Space Telescope 3.7 18:24:42 10° SSW 18:25:27 10° S 18:26:11 10° S
CZ-4 R/B 1.2 18:22:04 10° SSE 18:25:55 84° ENE 18:29:53 10° N
CSL-04 Rocket 4.2 18:20:42 10° S 18:26:05 65° WSW 18:31:34 10° NNW
Cosmos 158 Rocket 3.8 18:21:45 10° NNW 18:26:51 87° ENE 18:31:48 10° SSE
Cosmos 2084 4.4 18:27:49 10° S 18:31:24 27° ESE 18:32:46 22° E
USA 215 3.5 18:25:28 10° SE 18:31:58 73° SW 18:38:31 10° NW
Meteor 1-15 Rocket 4.5 18:28:26 10° N 18:34:13 51° ENE 18:39:56 10° SSE
Cosmos 1743 4.3 18:31:52 10° NNW 18:35:29 38° W 18:39:06 10° SSW
EO 1 Del DPAF 3.8 18:33:38 21° NE 18:35:41 37° E 18:39:13 10° SSE
Cosmos 1697 Rocket 2.9 18:31:24 10° S 18:36:51 52° ESE 18:41:05 17° NE
SKYMED 2 3.7 18:33:12 10° NNE 18:37:26 52° E 18:41:39 10° S
Cosmos 1515 4.1 18:34:33 10° SSE 18:38:06 40° E 18:39:55 24° NE
NOSS 3-4 (A) 3.6 18:35:40 10° SSW 18:41:39 53° ESE 18:45:48 21° NE
NOSS 3-4 (C) 3.7 18:35:46 10° SSW 18:41:45 53° ESE 18:45:51 21° NE
Okean 2 3.7 18:42:29 10° SSE 18:46:22 43° E 18:48:05 27° NE
Abrixas rocket 3.6 18:44:11 10° WNW 18:46:54 24° N 18:47:23 23° N
Cosmos 2082 3.9 18:43:18 10° NNW 18:48:55 75° WSW 18:54:30 10° SSE
PSLV R/B 3.0 18:47:28 10° W 18:50:38 79° S 18:51:14 54° ESE
Landsat 4 3.7 18:49:54 13° N 18:53:14 83° WNW 18:57:02 10° SSW
ISS -1.3 18:51:18 10° W 18:53:56 22° SW 18:56:32 10° S
Gbstr 26 Del rocket 4.4 18:46:12 10° SW 18:54:18 85° SE 18:58:45 27° ENE
Cosmos 2266 Rocket 4.1 18:49:01 10° N 18:55:06 75° W 19:01:15 10° S
ERS-2 1.9 18:52:56 10° SSE 18:56:35 74° ENE 19:00:15 10° N
BREEZE-M DEB (TANK) 3.7 18:56:27 10° NW 18:59:29 62° NNE 19:02:42 27° ESE
SPOT 3 Rocket 3.4 18:54:43 10° SSE 18:59:52 71° ENE 19:05:01 10° N
Cosmos 2227 Rocket 3.3 18:55:10 10° NW 19:00:34 47° WSW 19:05:56 10° S
CENTAUR R/B 3.5 18:53:28 10° NNW 19:00:47 41° NE 19:04:34 27° E
NOSS 2-2 (E) 4.5 19:02:22 10° S 19:05:01 28° SE 19:05:01 28° SE
YAOGAN 1 3.7 19:05:21 10° S 19:09:29 45° W 19:13:41 10° NNW
Thor Agena Rocket 4.4 19:12:21 31° ESE 19:12:21 31° ESE 19:15:58 10° SSE
MOS 1 4.5 19:07:23 10° S 19:13:03 73° WSW 19:18:45 10° NNW
Cosmos 2251 Rocket 4.0 19:09:24 10° N 19:13:36 39° NE 19:13:36 39° NE
S3M 4.2 19:11:08 10° SSE 19:16:49 42° E 19:17:05 42° E
Cosmos 1980 Rocket 2.1 19:12:13 10° S 19:17:49 66° ESE 19:19:35 43° NE
Cosmos 494 Rocket 3.9 19:13:08 10° NNW 19:18:25 68° ENE 19:23:05 13° SSE
Cosmos 1066 Rocket 4.2 19:13:45 10° S 19:19:06 52° E 19:19:39 50° ENE
COSMO-SKYMED 1 3.6 19:21:48 13° N 19:25:26 45° WNW 19:29:34 10° SW
Cosmos 2297 Rocket 3.9 19:22:01 10° NW 19:27:02 33° WSW 19:32:01 10° SSW
Cosmos 1244 Rocket 4.4 19:23:45 10° N 19:29:56 88° W 19:36:07 10° S
Atlas Centaur 2 4.4 19:28:51 10° SW 19:30:16 11° SSW 19:31:38 10° S
Gblst 52 Del rocket 4.2 19:25:41 10° NW 19:31:24 85° NNE 19:33:02 52° ESE
SJ 16-02 3.4 19:28:10 10° WSW 19:31:49 25° WNW 19:35:01 12° N
Cosmos 2344 4.2 19:34:57 10° S 19:40:34 34° SE 19:40:34 34° SE
Cosmos 2227 4.3 19:40:14 10° NNW 19:45:09 61° N 19:45:09 61° N
RESURS DK-1 3.8 19:42:08 10° SSW 19:44:18 30° SSW 19:44:18 30° SSW
Cosmos 1553 Rocket 3.9 19:43:51 10° S 19:50:16 88° E 19:52:38 42° N
SL-08 R/B 4.3 19:45:27 10° N 19:51:46 89° E 19:57:57 10° S
ALOS 4.0 19:50:37 10° SSW 19:54:45 31° W 19:58:55 10° NNW
SL-16 R/B 3.9 19:53:44 10° S 19:55:26 20° S 19:55:26 20° S
DELTA 2 R/B (1) 4.1 19:55:37 10° W 20:00:47 53° SSW 20:00:47 53° SSW
Cosmos 2263 Rocket 4.3 19:58:41 10° NNW 19:59:25 14° N 19:59:25 14° N
Cosmos 2322 Rocket 4.1 19:58:48 10° S 20:00:14 18° S 20:00:14 18° S
CENTAUR R/B 3.5 20:44:04 10° NW 20:51:52 59° WSW 20:51:52 59° WSW
Cosmos 1980 Rocket 4.4 20:58:07 10° W 21:01:25 20° WNW 21:01:25 20° WNW
